Location: Omaha
(41.2590°N, 95.9380°W)
Time: 03:56:09
(UTC-06:00)

Hubble Space Telescope - Pass Details

Date: 08 October 2017
Orbit: 537 x 541 km, 28.5° (Epoch: 16 December)

Event Time Altitude Azimuth Distance (km) Brightness Sun altitude
Exits shadow 06:03:01 11° 200° (SSW) 1,701 3.1 -16.8°
Maximum altitude 06:03:45 12° 189° (S) 1,674 3.1 -16.7°
Drops below altitude 10° 06:05:17 10° 168° (SSE) 1,786 3.5 -16.4°
Sets 06:08:53 0° 136° (SE) 2,677 4.9 -15.7°
